User: anonymous
Location: Drayton Valley
(53.2170°N, 114.9830°W)
Time: 00:54:53
(UTC-06:00)
Language:

Cosmos 1302 Rocket - Orbit

View from above orbital plane
View from above orbital plane
View from above satellite
View from above satellite

Ground track
Ground track

The orbit data is extracted from the following two-line orbital elements,

1 12792U 81084B   14244.76431524  .00000098  00000-0  41781-4 0  5942
2 12792 074.0291 111.6595 0014643 283.7792 141.8574 14.37124554728597
Epoch (UTC): 01 September 2014 18:20:36
Eccentricity: 0.0014643
inclination: 74.0291°
perigee height: 757 km
apogee height: 778 km
right ascension of ascending node: 111.6595°
argument of perigee: 283.7792°
revolutions per day: 14.37124554
mean anomaly at epoch: 141.8574°
orbit number at epoch: 72859

The dashed part of the orbit path shows where the satellite is in the earth's shadow,  

DLR